sat.trackr.live / text

‹ back to catalog

STARLINK-36903

NORAD 68001 · 2026-039R

PAYLOAD ACTIVE UNKNOWN

§ Identity

Operator
Country
US
Launch date
2026-02-27
Launch site
AFETR
Launch vehicle
Mass (kg)
RCS (m²)

Purposes: comms

External: N2YO · Heavens-Above · Gunter

§ Orbital elements

Epoch: 2026-09-19T15:47:07.046880Z

Period
94.27 min
Inclination
42.9999°
Eccentricity
0.0001612
Mean motion
15.27603862 rev/d
Perigee alt
481.9 km
Apogee alt
484.1 km
Semi-major
6,861.1 km
B*
5.9697e-4
RAAN
33.9103°
Arg perigee
286.0520°
Mean anomaly
74.0154°
Rev number
3,136

§ Raw data

STARLINK-369031 68001U 26039R   26262.65772045  .00016213  00000+0  59697-3 0  99902 68001  42.9999  33.9103 0001612 286.0520  74.0154 15.27603862 31365

JSON: /api/v1/satellites/68001 · /tle

For live sub-satellite position, see the globe view (requires WebGL).

§ Visibility from observer

Set your observer location to see the next 7 days of passes ≥ 10°. The values pass through the URL so the page stays shareable.

No JS? Fill the form by hand. The geolocation button needs JavaScript.